Location: Ch�tillon
(48.8024°N, 2.2935°E)
Time: 21:30:35
(UTC+00:00)

CAS-4A - Pass Details

Date: 13 July 2022
Orbit: 521 x 536 km, 43.0° (Epoch: 16 August)

Event Time Altitude Azimuth Distance (km) Brightness Sun altitude
Rises 21:32:22 0° 240° (WSW) 2,641 ? -12.5°
Reaches altitude 10° 21:34:45 10° 230° (SW) 1,752 ? -12.7°
Maximum altitude 21:38:17 30° 168° (SSE) 943 ? -13.0°
Enters shadow 21:40:24 19° 119° (ESE) 1,291 ? -13.2°
